Lid_Strength_Index
18 19 20 20 20 20 20 20 20 20 20 20 20 20 20 20 19 18 18 18 18 17 16 16 15 14 14 13 11 10 9 10 12 13 10 6 7 5 3 2 3 3 4
19 20 20 20 20 21 20 20 21 21 21 21 21 21 21 21 20 20 20 20 20 19 18 18 17 16 16 13 12 11 12 11 11 14 9 8 8 6 3 4 3 3 4
20 21 21 21 21 21 21 21 22 22 22 22 22 22 22 22 22 21 21 21 21 20 20 19 19 18 16 14 14 14 12 12 11 13 12 8 8 5 3 4 5 5 6
21 21 21 21 21 22 22 22 23 23 23 23 23 23 23 22 22 22 22 21 21 20 19 19 18 18 16 16 15 15 13 14 13 14 14 10 9 5 3 5 6 6 8
22 22 22 22 22 23 23 23 23 24 24 24 24 23 23 22 22 22 21 20 20 19 18 18 17 15 15 15 15 15 15 15 15 14 13 11 10 6 6 5 8 8 9
22 22 23 23 24 24 24 25 25 25 24 24 24 23 23 22 21 20 19 19 19 19 18 17 15 15 15 14 13 12 12 15 16 15 15 14 12 8 6 6 8 10 13
22 23 24 24 25 25 25 26 25 25 25 24 24 23 23 23 20 19 18 18 18 18 17 16 15 15 14 14 13 13 12 12 11 13 14 13 12 10 7 7 9 12 13
23 25 25 25 26 26 26 26 26 25 25 25 25 24 23 22 20 19 18 18 17 18 17 15 15 15 14 13 13 13 13 13 13 12 12 12 10 8 8 7 9 13 13
25 25 25 26 27 27 28 27 26 25 26 26 24 24 24 23 21 18 17 18 18 17 16 14 15 15 14 13 14 14 12 11 11 11 11 10 8 7 6 8 11 13 15
24 25 25 26 28 28 27 27 26 27 26 25 24 24 23 23 20 17 16 17 18 17 15 14 14 15 13 12 13 12 12 11 11 12 12 11 9 7 7 9 11 14 14
25 26 27 27 28 28 28 26 27 27 26 26 25 23 22 20 19 16 15 16 16 15 15 16 16 15 14 13 12 12 11 10 11 12 11 11 9 8 8 9 12 13 14
27 27 28 29 27 27 30 28 28 27 26 25 24 22 20 19 18 16 15 14 13 15 17 17 17 14 13 12 12 11 10 10 10 11 13 11 10 9 9 10 12 12 12
28 29 29 29 28 28 28 27 25 26 25 24 22 22 21 19 17 16 15 15 14 16 17 16 16 14 12 13 12 12 12 12 11 11 12 12 9 8 8 11 11 11 12
29 29 29 28 28 28 26 25 25 24 24 22 22 21 21 19 18 16 16 17 15 16 16 19 17 15 14 13 13 12 11 11 11 11 10 10 9 9 10 10 12 12 14
28 28 28 27 27 27 26 25 24 23 22 21 20 20 20 20 18 16 16 17 17 17 19 20 19 18 18 18 17 16 15 14 12 10 10 10 9 9 10 11 12 13 14
28 28 27 27 27 27 26 25 24 23 21 19 18 18 18 17 16 15 15 15 15 16 21 22 21 20 20 19 19 19 18 17 16 15 12 9 10 9 12 12 13 14 14
27 28 28 28 27 27 27 25 25 24 22 21 19 18 18 17 16 16 16 15 17 19 23 23 22 22 21 20 20 20 20 18 17 17 16 15 10 11 13 12 13 13 10
28 28 28 28 27 28 27 27 26 26 26 24 21 19 19 17 17 17 16 17 21 21 22 23 23 22 22 21 21 20 20 19 18 18 18 16 16 15 13 12 13 11 10
30 30 29 29 28 28 27 27 26 26 26 26 24 22 23 19 19 18 17 21 22 23 23 23 22 22 22 21 21 20 21 20 20 20 19 18 19 19 14 12 11 11 10
29 30 29 28 29 28 27 26 26 26 26 26 26 25 25 22 23 22 21 21 23 23 23 23 22 21 22 21 21 20 21 20 20 21 21 20 22 23 13 11 11 11 10
29 30 29 28 27 27 27 27 27 27 27 27 26 27 19 25 24 22 22 22 23 23 23 23 22 22 21 21 21 20 22 20 21 22 22 22 23 22 14 10 12 11 11
28 29 28 28 28 28 28 28 28 27 27 27 26 25 22 24 24 23 22 22 23 23 22 22 23 22 21 22 20 21 22 21 22 23 23 23 22 22 19 12 12 11 12
28 29 29 28 28 30 29 29 28 27 26 27 26 26 25 25 25 24 24 23 23 23 22 22 22 22 21 21 19 20 21 21 22 23 24 24 24 23 21 13 12 12 11
28 27 28 28 28 28 28 28 28 30 28 27 26 26 26 26 25 24 24 24 24 23 22 22 22 22 22 21 19 20 19 19 22 23 23 24 24 23 22 14 11 11 11
27 27 28 28 29 28 29 28 27 28 27 26 26 26 26 25 25 24 24 24 25 24 23 22 21 21 21 20 19 19 19 18 21 22 23 24 25 24 23 17 11 11 11
27 28 28 29 29 29 28 27 28 27 28 27 26 27 27 26 25 25 25 26 25 25 24 23 21 21 20 19 17 18 19 18 20 22 23 24 25 25 25 24 22 16 11